1336608026346,2.13275
1336608086346,2.14107
1336608146346,2.12914
1336608206346,2.13478
1336608266346,2.11570
1336608326346,2.11646
1336608386346,2.14115
1336608446346,2.11888
1336608506346,2.11679
1336608566346,2.12322
1336608626346,2.12340
1336608686346,2.12366
1336608746346,2.13725
1336608806346,2.11991
1336608866346,2.13205
1336608926346,2.13337
1336608986346,2.11921
1336609046346,2.10968
1336609106346,2.12378
1336609166346,2.09933
1336609226346,2.11727
1336609286346,2.11182
1336609346346,2.13367
1336609406346,2.10846
1336609466346,2.12088
1336609526346,2.11404
1336609586346,2.10465
1336609646346,2.13737
1336609706346,2.10721
1336609766346,2.11220
1336609826346,2.09608
1336609886346,2.11428
1336609946346,2.09092
1336610006346,2.09993
1336610066346,2.09518
1336610126346,2.08795
1336610186346,2.10724
1336610246346,2.09533
1336610306346,2.10215
1336610366346,2.11222
1336610426346,2.11724
1336610486346,2.09281
1336610546346,2.10299
1336610606346,2.10686
1336610666346,2.12469
1336610726346,2.11265
1336610786346,2.11332
1336610846346,2.07808
1336610906346,2.10235
1336610966346,2.10575
1336611026346,2.13706
1336611086346,2.12550
1336611146346,2.09997
1336611206346,2.10247
1336611266346,2.10708
1336611326346,2.12969
1336611386346,2.10715
1336611446346,2.10150
1336611506346,2.11329
1336611566346,2.14021
1336611626357,2.13013
1336611686357,2.10722
1336611746357,2.11741
1336611806357,2.12775
1336611866357,2.09007
1336611926357,2.12044
1336611986357,2.12132
1336612046357,2.13644
1336612106357,2.10558
1336612166357,2.10526
1336612226357,2.12236
1336612286357,2.12766
1336612346357,2.13630
1336612406357,2.12924
1336612466357,2.11507
1336612526357,2.12697
1336612586357,2.11610
1336612646357,2.14027
1336612706357,2.12162
1336612766357,2.10063
1336612826357,2.13127
1336612886357,2.14760
1336612946357,2.13720
1336613006357,2.13555
1336613066357,2.12875
1336613126357,2.11176
1336613186357,2.12102
1336613246357,2.13533
1336613306357,2.14206
1336613366357,2.13428
1336613426357,2.13436
1336613486357,2.14612
1336613546357,2.16319
1336613606357,2.14197
1336613666357,2.15270
1336613726357,2.14033
1336613786357,2.16910
1336613846357,2.16676
1336613906357,2.14001
1336613966357,2.14311
1336614026357,2.14514
1336614086357,2.14948
1336614146357,2.15956
1336614206357,2.13439
1336614266357,2.16863
1336614326357,2.15587
1336614386357,2.14588
1336614446357,2.17682
1336614506357,2.18284
1336614566357,2.18258
1336614626357,2.20252
1336614686357,2.18577
1336614746357,2.20764
1336614806357,2.17699
1336614866357,2.18128
1336614926357,2.18197
1336614986357,2.19441
1336615046357,2.18614
1336615106357,2.20403
1336615166357,2.18425
1336615226368,2.20866
1336615286368,2.21742
1336615346368,2.17687
1336615406368,2.20074
1336615466368,2.17924
1336615526368,2.19827
1336615586368,2.18105
1336615646368,2.17265
1336615706368,2.19988
1336615766368,2.17083
1336615826368,2.19439
1336615886368,2.22436
1336615946368,2.22229
1336616006368,2.18040
1336616066368,2.18880
1336616126368,2.21340
1336616186368,2.21509
1336616246368,2.18579
1336616306368,2.16979
1336616366368,2.18876
1336616426368,2.16127
1336616486368,2.16808
1336616546368,2.17630
1336616606368,2.16240
1336616666368,2.17652
1336616726368,2.16311
1336616786368,2.14782
1336616846368,2.14757
1336616906368,2.16113
1336616966368,2.14649
1336617026368,2.15722
1336617086368,2.16199
1336617146368,2.14668
1336617206368,2.16920
1336617266368,2.14342
1336617326368,2.13806
1336617386368,2.13660
1336617446368,2.14579
1336617506368,2.16157
1336617566368,2.15340
1336617626368,2.10392
1336617686368,2.12001
1336617746368,2.12310
1336617806368,2.12720
1336617866368,2.11453
1336617926368,2.12423
1336617986368,2.14408
1336618046368,2.14417
1336618106368,2.13671
1336618166368,2.13205
1336618226368,2.13740
1336618286368,2.14764
1336618346368,2.14048
1336618406368,2.12201
1336618466368,2.12538
1336618526368,2.15078
1336618586368,2.11738
1336618646368,2.13302
1336618706368,2.13960
1336618766368,2.11617
1336618826379,2.12316
1336618886379,2.12793
1336618946379,2.13808
1336619006379,2.09855
1336619066379,2.12393
1336619126379,2.09481
1336619186379,2.11990
1336619246379,2.13126
1336619306379,2.11349
1336619366379,2.10730
1336619426379,2.12857
1336619486379,2.10653
1336619546379,2.08862
1336619606379,2.11231
1336619666379,2.13258
1336619726379,2.09456
1336619786379,2.13516
1336619846379,2.12005
1336619906379,2.09995
1336619966379,2.10803
1336620026379,2.12278
1336620086379,2.12148
1336620146379,2.10008
1336620206379,2.11010
1336620266379,2.12940
1336620326379,2.11246
1336620386379,2.10603
1336620446379,2.10063
1336620506379,2.12532
1336620566379,2.08733
1336620626379,2.09415
1336620686379,2.10330
1336620746379,2.07974
1336620806379,2.12227
1336620866379,2.11825
1336620926379,2.11163
1336620986379,2.10034
1336621046379,2.11914
1336621106379,2.09057
1336621166379,2.08525
1336621226379,2.11353
1336621286379,2.08303
1336621346379,2.06993
1336621406379,2.09849
1336621466379,2.10013
1336621526379,2.09845
1336621586379,2.10114
1336621646379,2.10341
1336621706379,2.07473
1336621766379,2.09826
1336621826379,2.10271
1336621886379,2.10574
1336621946379,2.09093
1336622006379,2.09950
1336622066379,2.08849
1336622126379,2.06313
1336622186379,2.10317
1336622246379,2.09423
1336622306379,2.09202
1336622366379,2.08443
1336622426389,2.09592
1336622486389,2.09384
1336622546389,2.09423
1336622606389,2.09602
1336622666389,2.08518
1336622726389,2.08907
1336622786389,2.11517
1336622846389,2.09046
1336622906389,2.10043
1336622966389,2.11164
1336623026389,2.10645
1336623086389,2.10952
1336623146389,2.09097
1336623206389,2.12649
1336623266389,2.11785
1336623326389,2.17517
1336623386389,2.41363
1336623446389,2.40546
1336623506389,2.40234
1336623566389,2.36728
1336623626389,2.38239
1336623686389,2.36559
1336623746389,2.32917
1336623806389,2.30951
1336623866389,2.30740
1336623926389,2.29751
1336623986389,2.29819
1336624046389,2.27604
1336624106389,2.24076
1336624166389,2.22572
1336624226389,2.21411
1336624286389,2.19157
1336624346389,2.21150
1336624406389,2.19497
1336624466389,2.20225
1336624526389,2.19299
1336624586389,2.21276
1336624646389,2.17522
1336624706389,2.19048
1336624766389,2.25886
1336624826389,2.17469
1336624886389,2.20924
1336624946389,2.15828
1336625006389,2.16643
1336625066389,2.16678
1336625126389,2.14072
1336625186389,2.14862
1336625246389,2.16121
1336625306389,2.16171
1336625366389,2.17802
1336625426389,2.17928
1336625486389,2.14354
1336625546389,2.18376
1336625606389,2.17054
1336625666389,2.18706
1336625726389,2.18743
1336625786389,2.17955
1336625846389,2.18706
1336625906389,2.17245
1336625966389,2.18855
1336626026400,2.16065
1336626086400,2.19417
1336626146400,2.18591
1336626206400,2.20315
1336626266400,2.20775
1336626326400,2.19864
1336626386400,2.21257
1336626446400,2.23833
1336626506400,2.28591
1336626566400,2.26202
1336626626400,2.27139
1336626686400,2.26122
1336626746400,2.27760
1336626806400,2.27990
1336626866400,2.30104
1336626926400,2.29157
1336626986400,2.30577
1336627046400,2.30582
1336627106400,2.30526
1336627166400,2.31944
1336627226400,2.32211
1336627286400,2.33656
1336627346400,2.35033
1336627406400,2.33460
1336627466400,2.34304
1336627526400,2.34762
1336627586400,2.35160
1336627646400,2.35461
1336627706400,2.36319
1336627766400,2.35775
1336627826400,2.38941
1336627886400,2.35575
1336627946400,2.33544
1336628006400,2.32905
1336628066400,2.29098
1336628126400,2.31650
1336628186400,2.27547
1336628246400,2.27964
1336628306400,2.29290
1336628366400,2.26006
1336628426400,2.28253
1336628486400,2.24276
1336628546400,2.26249
1336628606400,2.22337
1336628666400,2.21811
1336628726400,2.22341
1336628786400,2.20627
1336628846400,2.20715
1336628906400,2.18546
1336628966400,2.18146
1336629026400,2.19379
1336629086400,2.16986
1336629146400,2.16594
1336629206400,2.18342
1336629266400,2.18854
1336629326400,2.18993
1336629386400,2.18465
1336629446400,2.20329
1336629506400,2.19083
1336629566400,2.19387
1336629626410,2.20351
1336629686410,2.21496
1336629746410,2.18909
1336629806410,2.20379
1336629866410,2.21140
1336629926410,2.21383
1336629986410,2.23426
1336630046410,2.24191
1336630106410,2.24568
1336630166410,2.24964
1336630226410,2.23083
1336630286410,2.25545
1336630346410,2.24587
1336630406410,2.23726
1336630466410,2.23423
1336630526410,2.30229
1336630586410,2.24369
1336630646410,2.25020
1336630706410,2.24476
1336630766410,2.23796
1336630826410,2.22757
1336630886410,2.23670
1336630946410,2.21969
1336631006410,2.24165
1336631066410,2.25980
1336631126410,2.26729
1336631186410,2.25755
1336631246410,2.24787
1336631306410,2.22796
1336631366410,2.25898
1336631426410,2.23071
1336631486410,2.26486
1336631546410,2.24924
1336631606410,2.22991
1336631666410,2.22183
1336631726410,2.22741
1336631786410,2.22148
1336631846410,2.22662
1336631906410,2.22615
1336631966410,2.24139
1336632026410,2.23345
1336632086410,2.21172
1336632146410,2.23070
1336632206410,2.22389
1336632266410,2.21301
1336632326410,2.22844
1336632386410,2.21094
1336632446410,2.21635
1336632506410,2.20835
1336632566410,2.21274
1336632626410,2.20270
1336632686410,2.21309
1336632746410,2.20645
1336632806410,2.19901
1336632866410,2.20699
1336632926410,2.18705
1336632986410,2.20574
1336633046410,2.20579
1336633106410,2.20421
1336633166410,2.20269
1336633226420,2.20055
1336633286420,2.19411
1336633346420,2.20079
1336633406420,2.35547
1336633466420,2.20916
1336633526420,2.19154
1336633586420,2.20041
1336633646420,2.19773
1336633706420,2.21021
1336633766420,2.19484
1336633826420,2.19299
1336633886420,2.20133
1336633946420,2.18995
1336634006420,2.21623
1336634066420,2.20105
1336634126420,2.20504
1336634186420,2.20195
1336634246420,2.20661
1336634306420,2.18160
1336634366420,2.20050
1336634426420,2.18075
1336634486420,2.19152
1336634546420,2.19024
1336634606420,2.20305
1336634666420,2.18503
1336634726420,2.20357
1336634786420,2.21054
1336634846420,2.18843
1336634906420,2.18504
1336634966420,2.20306
1336635026420,2.18658
1336635086420,2.21603
1336635146420,2.19223
1336635206420,2.19395
1336635266420,2.18610
1336635326420,2.17965
1336635386420,2.19177
1336635446420,2.21108
1336635506420,2.20952
1336635566420,2.20304
1336635626420,2.20873
1336635686420,2.17524
1336635746420,2.18854
1336635806420,2.18105
1336635866420,2.16505
1336635926420,2.19750
1336635986420,2.19849
1336636046420,2.18824
1336636106420,2.18358
1336636166420,2.17146
1336636226420,2.16075
1336636286420,2.17049
1336636346420,2.16912
1336636406420,2.17198
1336636466420,2.17633
1336636526420,2.17262
1336636586420,2.18440
1336636646420,2.16363
1336636706420,2.18201
1336636766420,2.16858
1336636826430,2.14486
1336636886430,2.16628
1336636946430,2.16210
1336637006430,2.12467
1336637066430,2.17472
1336637126430,2.15632
1336637186430,2.15702
1336637246430,2.16460
1336637306430,2.16849
1336637366430,2.18180
1336637426430,2.17103
1336637486430,2.16873
1336637546430,2.17035
1336637606430,2.17496
1336637666430,2.15677
1336637726430,2.17953
1336637786430,2.37911
1336637846430,2.16639
1336637906430,2.18095
1336637966430,2.16589
1336638026430,2.15172
1336638086430,2.15416
1336638146430,2.16391
1336638206430,2.17978
1336638266430,2.15274
1336638326430,2.18623
1336638386430,2.16431
1336638446430,2.16620
1336638506430,2.16211
1336638566430,2.15819
1336638626430,2.16302
1336638686430,2.17108
1336638746430,2.16637
1336638806430,2.18528
1336638866430,2.16504
1336638926430,2.15493
1336638986430,2.15008
1336639046430,2.16887
1336639106430,2.14000
1336639166430,2.16292
1336639226430,2.15241
1336639286430,2.14760
1336639346430,2.17076
1336639406430,2.15152
1336639466430,2.15849
1336639526430,2.14381
1336639586430,2.15910
1336639646430,2.14731
1336639706430,2.13375
1336639766430,2.16256
1336639826430,2.13356
1336639886430,2.15770
1336639946430,2.16270
1336640006430,2.13450
1336640066430,2.16906
1336640126430,2.13599
1336640186430,2.16226
1336640246430,2.14030
1336640306430,2.13950
1336640366430,2.13210
1336640426440,2.12569
1336640486440,2.14906
1336640546440,2.14763
1336640606440,2.13905
1336640666440,2.13322
1336640726440,2.13539
1336640786440,2.13334
1336640846440,2.14951
1336640906440,2.13481
1336640966440,2.13371
1336641026440,2.12350
1336641086440,2.13829
1336641146440,2.14647
1336641206440,2.15071
1336641266440,2.13867
1336641326440,2.14786
1336641386440,2.14882
1336641446440,2.12043
1336641506440,2.13593
1336641566440,2.14889
1336641626440,2.13103
1336641686440,2.15156
1336641746440,2.14273
1336641806440,2.14627
1336641866440,2.14514
1336641926440,2.18114
1336641986440,2.14648
1336642046440,2.11490
1336642106440,2.14862
1336642166440,2.12468
1336642226440,2.13408
1336642286440,2.13458
1336642346440,2.15643
1336642406440,2.15161
1336642466440,2.15037
1336642526440,2.14650
1336642586440,2.14886
1336642646440,2.14862
1336642706440,2.14249
1336642766440,2.13511
1336642826440,2.16419
1336642886440,2.14566
1336642946440,2.13322
1336643006440,2.12231
1336643066440,2.13202
1336643126440,2.11471
1336643186440,2.12787
1336643246440,2.15966
1336643306440,2.13158
1336643366440,2.13726
1336643426440,2.13583
1336643486440,2.13720
1336643546440,2.14146
1336643606440,2.15587
1336643666440,2.14430
1336643726440,2.14291
1336643786440,2.14700
1336643846440,2.15577
1336643906440,2.13233
1336643966440,2.15184
1336644026450,2.14046
1336644086450,2.13885
1336644146450,2.14248
1336644206450,2.14528
1336644266450,2.15119
1336644326450,2.15006
1336644386450,2.14076
1336644446450,2.15277
1336644506450,2.13868
1336644566450,2.13947
1336644626450,2.15646
1336644686450,2.14688
1336644746450,2.14859
1336644806450,2.15919
1336644866450,2.13902
1336644926450,2.14238
1336644986450,2.15991
1336645046450,2.14388
1336645106450,2.14887
1336645166450,2.14164
1336645226450,2.16689
1336645286450,2.15660
1336645346450,2.15967
1336645406450,2.15425
1336645466450,2.15437
1336645526450,2.15663
1336645586450,2.17667
1336645646450,2.15855
1336645706450,2.14180
1336645766450,2.17798
1336645826450,2.06880
1336645886450,2.04969
1336645946450,2.11282
1336646006450,2.14560
1336646066450,2.15721
1336646126450,2.15658
1336646186450,2.15846
1336646246450,2.14310
1336646306450,2.13659
1336646366450,2.15699
1336646426450,2.16059
1336646486450,2.15844
1336646546450,2.11721
1336646606450,2.13564
1336646666450,2.13854
1336646726450,2.14801
1336646786450,2.12659
1336646846450,2.12174
1336646906450,2.14995
1336646966450,2.12077
1336647026450,2.12341
1336647086450,2.12168
1336647146450,2.13262
1336647206450,2.14048
1336647266450,2.13325
1336647326450,2.12351
1336647386450,2.12985
1336647446450,2.14381
1336647506450,2.13541
1336647566450,2.13342
1336647626460,2.13078
1336647686460,2.13440
1336647746460,2.12553
1336647806460,2.12941
1336647866460,2.10503
1336647926460,2.13026
1336647986460,2.10637
1336648046460,2.14345
1336648106460,2.15957
1336648166460,2.12275
1336648226460,2.12127
1336648286460,2.12742
1336648346460,2.13233
1336648406460,2.12103
1336648466460,2.15601
1336648526460,2.11856
1336648586460,2.12040
1336648646460,2.12196
1336648706460,2.10806
1336648766460,2.11890
1336648826460,2.11200
1336648886460,2.12024
1336648946460,2.12848
1336649006460,2.12766
1336649066460,2.11409
1336649126460,2.12042
1336649186460,2.12667
1336649246460,2.12439
1336649306460,2.14052
1336649366460,2.11673
1336649426460,2.13839
1336649486460,2.12717
1336649546460,2.11857
1336649606460,2.12979
1336649666460,2.12626
1336649726460,2.12381
1336649786460,2.14386
1336649846460,2.13379
1336649906460,2.20847
1336649966460,2.15471
1336650026460,2.12257
1336650086460,2.12738
1336650146460,2.13851
1336650206460,2.12519
1336650266460,2.14081
1336650326460,2.12893
1336650386460,2.17350
1336650446460,2.16816
1336650506460,2.15602
1336650566460,2.15558
1336650626460,2.14886
1336650686460,2.15878
1336650746460,2.14551
1336650806460,2.16118
1336650866460,2.16424
1336650926460,2.15413
1336650986460,2.16279
1336651046460,2.09632
1336651106460,2.16421
1336651166460,2.16112
1336651226470,2.16548
1336651286470,2.17731
1336651346470,2.15423
1336651406470,2.15812
1336651466470,2.15428
1336651526470,2.13610
1336651586470,2.14987
1336651646470,2.14727
1336651706470,2.14216
1336651766470,2.15583
1336651826470,2.14317
1336651886470,2.12688
1336651946470,2.14941
1336652006470,2.14097
1336652066470,2.13954
1336652126470,2.16273
1336652186470,2.13834
1336652246470,2.14686
1336652306470,2.05726
1336652366470,2.16770
1336652426470,2.17424
1336652486470,2.15636
1336652546470,2.16019
1336652606470,2.15901
1336652666470,2.15647
1336652726470,2.14810
1336652786470,2.15000
1336652846470,2.15758
1336652906470,2.15505
1336652966470,2.14105
1336653026470,2.13748
1336653086470,2.15076
1336653146470,2.14572
1336653206470,2.15503
1336653266470,2.18144
1336653326470,2.15709
1336653386470,2.16728
1336653446470,2.15675
1336653506470,2.16358
1336653566470,2.16177
1336653626470,2.16160
1336653686470,2.19055
1336653746470,2.20661
1336653806470,2.17293
1336653866470,2.11479
1336653926470,2.17926
1336653986470,2.17342
1336654046470,2.17800
1336654106470,2.17700
1336654166470,2.17076
1336654226470,2.17049
1336654286470,2.15375
1336654346470,2.14201
1336654406470,2.16068
1336654466470,2.16884
1336654526470,2.15516
1336654586470,2.15119
1336654646470,2.15671
1336654706470,2.15091
1336654766470,2.15381
1336654826480,2.14220
1336654886480,2.14304
1336654946480,2.13574
1336655006480,2.15035
1336655066480,2.14871
1336655126480,2.15910
1336655186480,2.15214
1336655246480,2.17203
1336655306480,2.16551
1336655366480,2.17971
1336655426480,2.15264
1336655486480,2.16577
1336655546480,2.17560
1336655606480,2.14401
1336655666480,2.16450
1336655726480,2.19017
1336655786480,2.14722
1336655846480,2.14656
1336655906480,2.14615
1336655966480,2.14964
1336656026480,2.17739
1336656086480,2.17359
1336656146480,2.16733
1336656206480,2.15997
1336656266480,2.16517
1336656326480,2.16274
1336656386480,2.15464
1336656446480,2.17397
1336656506480,2.16312
1336656566480,2.17117
1336656626480,2.16101
1336656686480,2.18887
1336656746480,2.17362
1336656806480,2.16685
1336656866480,2.14594
1336656926480,2.14982
1336656986480,2.15867
1336657046480,2.20228
1336657106480,2.18620
1336657166480,2.13644
1336657226480,2.18300
1336657286480,2.16973
1336657346480,2.19139
1336657406480,2.16154
1336657466480,2.16399
1336657526480,2.16448
1336657586480,2.16747
1336657646480,2.18843
1336657706480,2.17456
1336657766480,2.17177
1336657826480,2.17073
1336657886480,2.16861
1336657946480,2.17763
1336658006480,2.16760
1336658066480,2.19453
1336658126480,2.18121
1336658186480,2.19595
1336658246480,2.18061
1336658306480,2.18282
1336658366480,2.18646
1336658426490,2.17340
1336658486490,2.18945
1336658546490,2.19313
1336658606490,2.18907
1336658666490,2.17268
1336658726490,2.18528
1336658786490,2.19862
1336658846490,2.14585
1336658906490,2.19238
1336658966490,2.21038
1336659026490,2.20230
1336659086490,2.18628
1336659146490,2.18104
1336659206490,2.19009
1336659266490,2.20187
1336659326490,2.15953
1336659386490,2.18714
1336659446490,2.20526
1336659506490,2.21156
1336659566490,2.16689
1336659626490,2.21436
1336659686490,2.19309
1336659746490,2.17159
1336659806490,2.18744
1336659866490,2.18362
1336659926490,2.17931
1336659986490,2.18512
1336660046490,2.19947
1336660106490,2.18769
1336660166490,2.22609
1336660226490,2.20979
1336660286490,2.18124
1336660346490,2.20297
1336660406490,2.20057
1336660466490,2.19755
1336660526490,2.22382
1336660586490,2.20769
1336660646490,2.21437
1336660706490,2.19164
1336660766490,2.20839
1336660826490,2.20526
1336660886490,2.22479
1336660946490,2.21575
1336661006490,2.23186
1336661066490,2.21678
1336661126490,2.21540
1336661186490,2.21615
1336661246490,2.20733
1336661306490,2.23493
1336661366490,2.21525
1336661426490,2.22214
1336661486490,2.22887
1336661546490,2.22542
1336661606490,2.21145
1336661666490,2.19505
1336661726490,2.23048
1336661786490,2.21267
1336661846490,2.20754
1336661906490,2.20487
1336661966490,2.20874
1336662026500,2.21550
1336662086500,2.25528
1336662146500,2.21072
1336662206500,2.20720
1336662266500,2.21939
1336662326500,2.21860
1336662386500,2.25882
1336662446500,2.21563
1336662506500,2.20946
1336662566500,2.24740
1336662626500,2.24359
1336662686500,2.22171
1336662746500,2.22447
1336662806500,2.20125
1336662866500,2.25507
1336662926500,2.23319
1336662986500,2.22856
1336663046500,2.22298
1336663106500,2.23642
1336663166500,2.18704
1336663226500,2.22388
1336663286500,2.23954
1336663346500,2.23194
1336663406500,2.20820
1336663466500,2.23301
1336663526500,2.21155
1336663586500,2.25376
1336663646500,2.20988
1336663706500,2.22348
1336663766500,2.24407
1336663826500,2.25339
1336663886500,2.21027
1336663946500,2.23343
1336664006500,2.23380
1336664066500,2.23650
1336664126500,2.26087
1336664186500,2.22199
1336664246500,2.23700
1336664306500,2.21092
1336664366500,2.22354
1336664426500,2.24355
1336664486500,2.22419
1336664546500,2.23930
1336664606500,2.23079
1336664666500,2.22143
1336664726500,2.22708
1336664786500,2.25718
1336664846500,2.23326
1336664906500,2.23442
1336664966500,2.23008
1336665026500,2.21655
1336665086500,2.22068
1336665146500,2.23383
1336665206500,2.24022
1336665266500,2.26583
1336665326500,2.23052
1336665386500,2.25213
1336665446500,2.22372
1336665506500,2.24999
1336665566500,2.22149
1336665626510,2.22800
1336665686510,2.23120
1336665746510,2.22310
1336665806510,2.27020
1336665866510,2.23932
1336665926510,2.25415
1336665986510,2.28093
1336666046510,2.22101
1336666106510,2.23420
1336666166510,2.27295
1336666226510,2.24104
1336666286510,2.24154
1336666346510,2.21994
1336666406510,2.24186
1336666466510,2.28718
1336666526510,2.23262
1336666586510,2.28511
1336666646510,2.26930
1336666706510,2.28317
1336666766510,2.25031
1336666826510,2.26486
1336666886510,2.26624
1336666946510,2.26073
1336667006510,2.23899
1336667066510,2.27105
1336667126510,2.26496
1336667186510,2.25870
1336667246510,2.26705
1336667306510,2.28530
1336667366510,2.27996
1336667426510,2.26550
1336667486510,2.29322
1336667546510,2.27361
1336667606510,2.29176
1336667666510,2.25573
1336667726510,2.29515
1336667786510,2.27437
1336667846510,2.30555
1336667906510,2.31272
1336667966510,2.25099
1336668026510,2.25007
1336668086510,2.29367
1336668146510,2.27788
1336668206510,2.26745
1336668266510,2.28539
1336668326510,2.30606
1336668386510,2.24338
1336668446510,2.25281
1336668506510,2.29025
1336668566510,2.28895
1336668626510,2.30101
1336668686510,2.35451
1336668746510,2.27137
1336668806510,2.30421
1336668866510,2.31076
1336668926510,2.26681
1336668986510,2.29361
1336669046510,2.26235
1336669106510,2.29781
1336669166510,2.29535
1336669226520,2.30274
1336669286520,2.28116
1336669346520,2.29103
1336669406520,2.29334
1336669466520,2.31724
1336669526520,2.29349
1336669586520,2.30746
1336669646520,2.26202
1336669706520,2.29985
1336669766520,2.30909
1336669826520,2.31384
1336669886520,2.31946
1336669946520,2.32665
1336670006520,2.31798
1336670066520,2.31767
1336670126520,2.29821
1336670186520,2.29645
1336670246520,2.28112
1336670306520,2.29729
1336670366520,2.29191
1336670426520,2.28087
1336670486520,2.26815
1336670546520,2.27357
1336670606520,2.30173
1336670666520,2.28970
1336670726520,2.28659
1336670786520,2.30475
1336670846520,2.27887
1336670906520,2.28115
1336670966520,2.25185
1336671026520,2.28410
1336671086520,2.28891
1336671146520,2.27056
1336671206520,2.26063
1336671266520,2.26862
1336671326520,2.26586
1336671386520,2.26294
1336671446520,2.30057
1336671506520,2.25599
1336671566520,2.26158
1336671626520,2.26848
1336671686520,2.28149
1336671746520,2.28426
1336671806520,2.27451
1336671866520,2.25681
1336671926520,2.26135
1336671986520,2.26967
1336672046520,2.29277
1336672106520,2.27858
1336672166520,2.29987
1336672226520,2.28636
1336672286520,2.26574
1336672346520,2.28135
1336672406520,2.26088
1336672466520,2.26835
1336672526520,2.27998
1336672586520,2.26446
1336672646520,2.28376
1336672706520,2.26446
1336672766520,2.25651
1336672826530,2.25407
1336672886530,2.33370
1336672946530,2.27627
1336673006530,2.26089
1336673066530,2.28679
1336673126530,2.25061
1336673186530,2.26344
1336673246530,2.26598
1336673306530,2.27726
1336673366530,2.27888